Terminal Aerodrome Forecast
Issued by NWS

Home | Current Version | Previous Version | Text Only | Print | Product List | Glossary On
Versions: 1 2 3 4 5 6 7 8 9 10 11 12 13 14 15 16 17 18 19 20 21 22
000
FTUS43 KDLH 240700 AAB
TAFBRD
TAF AMD
KBRD 240709Z 2407/2506 12008KT P6SM BKN012 OVC050
     FM241500 12009KT 3SM -RA BR OVC015
     FM242200 VRB04KT 6SM -DZ BR OVC010=

USA.gov is the U.S. government's official web portal to all federal, state and local government web resources and services.